SCP
0 0 0 0 0 0 0 0 0 0 0 0 0 0 0 0 0 0 0 0 0 0 0 0 0 0 0 0 0 0 0 0 0 0 0 0 0 0 0 0 0 0 0
0 0 0 0 0 0 0 0 0 0 0 0 0 0 0 0 0 0 0 0 0 0 0 0 0 0 0 0 0 0 0 0 0 0 0 0 0 0 0 0 0 0 0
0 0 0 0 0 0 0 0 0 0 0 0 0 0 0 0 0 0 0 0 0 0 0 0 0 0 0 0 0 0 0 0 0 0 0 0 0 0 0 0 0 0 0
0 0 0 0 0 0 0 0 0 0 0 0 0 0 0 0 0 0 0 0 0 0 0 0 0 0 0 0 0 0 0 0 0 0 0 0 0 0 0 0 0 0 0
0 0 0 0 0 0 0 0 0 0 0 0 0 0 0 0 0 0 0 0 0 0 0 0 0 0 0 0 0 0 0 0 0 0 0 0 0 0 0 0 0 0 0
0 0 0 0 0 0 0 0 0 0 0 0 0 0 0 0 0 0 0 0 0 0 0 0 0 0 0 0 0 0 0 0 0 0 0 0 0 0 0 0 0 0 0
0 0 0 0 0 0 0 0 0 0 0 0 0 0 0 0 0 0 0 0 0 0 0 0 0 0 0 0 0 0 0 0 0 0 0 0 0 0 0 0 0 0 0
0 0 0 0 0 0 0 0 0 0 0 0 0 0 0 0 0 0 0 0 0 0 0 0 0 0 0 0 0 0 0 0 0 0 0 0 0 0 0 0 0 0 0
0 0 0 0 0 0 0 0 0 0 0 0 0 0 0 0 0 0 0 0 0 0 0 0 0 0 0 0 0 0 0 0 0 0 0 0 0 0 0 0 0 0 0
0 0 0 0 0 0 0 0 0 0 0 0 0 0 0 0 0 0 0 0 0 0 0 0 0 0 0 0 0 0 0 0 0 0 0 0 0 0 0 0 0 0 0
0 0 0 0 0 0 0 0 0 0 0 0 0 0 0 0 0 0 0 0 0 0 0 0 0 0 0 0 0 0 0 0 0 0 0 0 0 0 0 0 0 0 0
0 0 0 0 0 0 0 0 0 0 0 0 0 0 0 0 0 0 0 0 0 0 0 0 0 0 0 0 0 0 0 0 0 0 0 0 0 0 0 0 0 0 0
0 0 0 0 0 0 0 0 0 0 0 0 0 0 0 0 0 0 0 0 0 0 0 0 0 0 0 0 0 0 0 0 0 0 0 0 0 0 0 0 0 0 0
0 0 0 0 0 0 0 0 0 0 0 0 0 0 0 0 0 0 0 0 0 0 0 0 0 0 0 0 0 0 0 0 0 0 0 0 0 0 0 0 0 0 0
0 0 0 0 0 0 0 0 0 0 0 0 0 0 0 0 0 0 0 0 0 0 0 0 0 0 0 0 0 0 0 0 0 0 0 0 0 0 0 0 0 0 0
0 0 0 0 0 0 0 0 0 0 0 0 0 0 0 0 0 0 0 0 0 0 0 0 0 0 0 0 0 0 0 0 0 0 0 0 0 0 0 0 0 0 0
0 0 0 0 0 0 0 0 0 0 0 0 0 0 0 0 0 0 0 0 0 0 0 0 0 0 0 0 0 0 0 0 0 0 0 0 0 0 0 0 0 0 0
0 0 0 0 0 0 0 0 0 0 0 0 0 0 0 0 0 0 0 0 0 0 0 0 0 0 0 0 0 0 0 0 0 0 0 0 0 0 0 0 0 0 0
0 0 0 0 0 0 0 0 0 0 0 0 0 0 0 0 0 0 0 0 0 0 0 0 0 0 0 0 0 0 0 0 0 0 0 0 0 0 0 0 0 0 0
0 0 0 0 0 0 0 0 0 0 0 0 0 0 0 0 0 0 0 0 0 0 0 0 0 0 0 0 0 0 0 0 0 0 0 0 0 0 0 0 0 0 0
0 0 0 0 0 0 0 0 0 0 0 0 0 0 0 0 0 0 0 0 0 0 0 0 0 0 0 0 0 0 0 0 0 0 0 0 0 0 0 0 0 0 0
0 0 0 0 0 0 0 0 0 0 0 0 0 0 0 0 0 0 0 0 0 0 0 0 0 0 0 0 0 0 0 0 0 0 0 0 0 0 0 0 0 0 0
0 0 0 0 0 0 0 0 0 0 0 0 0 0 0 0 0 0 0 0 0 0 0 0 0 0 0 0 0 0 0 0 0 0 0 0 0 0 0 0 0 0 0
0 0 0 0 0 0 0 0 0 0 0 0 0 0 0 0 0 0 0 0 0 0 0 0 0 0 0 0 0 0 0 0 0 0 0 0 0 0 0 0 0 0 0
0 0 0 0 0 0 0 0 0 0 0 0 0 0 0 0 0 0 0 0 0 0 0 0 0 0 0 0 0 0 0 0 0 0 0 0 0 0 0 0 0 0 0
0 0 0 0 0 0 0 0 0 0 0 0 0 0 0 0 0 0 0 0 0 0 0 0 0 0 0 0 0 0 0 0 0 0 0 0 0 0 0 0 0 0 0
Wind_Speed
4 3 3 3 1 1 1 1 2 2 2 2 2 2 3 3 3 3 3 3 3 3 2 2 2 1 1 1 1 0 1 1 0 0 1 1 2 2 2 2 2 3 3
3 3 3 2 2 2 2 2 2 2 2 1 1 2 2 3 3 3 3 3 3 3 2 1 1 1 1 1 1 0 0 1 1 1 1 1 1 2 2 2 3 3 2
7 5 4 4 3 3 3 3 3 3 3 2 1 2 2 2 3 3 3 4 4 3 3 2 1 1 0 1 1 1 1 1 1 1 2 2 2 1 1 1 2 2 2
6 5 5 4 5 5 3 3 3 3 3 2 1 1 1 2 3 3 3 4 4 3 3 2 2 1 1 1 1 1 1 1 1 1 1 1 1 1 1 1 1 1 2
7 7 7 6 5 4 3 3 2 3 2 2 1 1 1 2 3 3 4 4 4 4 3 3 2 2 1 1 1 1 1 1 1 1 1 0 0 1 1 1 1 1 1
6 6 5 4 3 3 2 2 2 3 2 2 2 1 2 3 3 4 4 4 3 3 4 3 2 2 1 2 1 1 1 1 2 1 2 2 1 1 2 1 1 2 2
6 6 6 5 4 4 4 3 2 3 3 2 2 2 2 2 2 3 3 4 3 3 4 4 3 2 2 2 1 1 1 1 1 2 2 2 2 2 2 2 1 1 2
6 7 7 6 5 5 4 3 3 4 3 3 3 2 2 1 2 2 2 3 3 3 4 4 3 3 2 2 1 1 1 1 1 2 2 1 2 2 2 2 2 1 1
7 7 6 6 5 5 5 4 4 4 3 3 2 2 2 2 2 3 2 2 3 3 4 4 4 3 2 2 1 1 1 1 1 1 1 1 1 2 2 2 3 2 2
6 6 6 6 5 5 4 3 3 4 3 2 2 1 2 2 2 2 3 3 4 4 4 5 4 4 3 2 2 1 1 1 1 1 0 1 1 1 1 2 2 3 3
7 7 6 5 5 4 3 3 3 3 3 2 2 2 2 2 2 2 3 3 3 4 4 4 4 4 4 3 2 2 2 2 2 2 1 1 1 1 1 1 1 2 2
6 6 6 4 4 4 4 4 4 4 3 2 2 2 2 2 2 3 3 3 3 4 4 4 4 4 4 3 3 3 3 2 2 2 2 2 1 1 1 1 1 2 2
5 4 4 5 5 5 5 4 4 4 3 2 1 1 2 2 2 3 3 3 3 4 4 4 4 4 4 3 3 2 3 2 2 2 2 2 2 1 1 1 1 1 2
5 5 5 6 5 5 5 5 5 4 3 2 2 2 3 2 2 3 3 3 3 3 4 3 3 3 3 3 3 2 3 3 3 2 2 2 2 2 2 2 2 2 2
6 7 7 6 5 5 5 5 5 4 3 3 3 4 3 2 2 2 3 3 3 3 3 3 4 4 3 2 2 2 2 3 3 3 3 3 3 4 3 2 2 2 2
8 8 7 7 7 7 6 5 5 4 4 4 4 3 2 2 2 3 3 3 3 3 3 3 4 4 4 6 6 3 2 2 3 3 4 4 4 5 5 5 4 3 2
9 8 8 8 8 7 7 7 6 4 4 4 4 3 3 3 3 2 2 3 3 3 3 3 3 4 5 7 6 5 2 2 2 3 3 4 5 6 4 4 5 4 4
8 8 7 7 6 5 5 4 4 4 4 4 4 4 3 3 3 2 3 3 2 3 3 3 3 4 5 7 5 4 2 2 2 2 2 3 4 4 4 3 3 3 3
8 8 7 6 6 6 6 5 4 4 4 4 5 4 4 4 3 3 4 3 2 3 3 3 3 3 5 7 5 3 1 1 3 3 2 3 3 6 6 3 3 4 4
5 6 5 5 5 5 6 6 5 4 5 6 5 4 4 4 4 5 4 3 2 3 3 3 3 3 4 7 6 3 0 1 2 3 3 4 5 6 6 3 3 4 5
6 6 6 5 5 6 7 6 5 6 6 4 3 3 3 4 4 4 3 3 2 3 3 4 4 3 4 6 6 3 1 1 2 2 3 3 7 7 7 5 2 5 5
6 6 6 5 4 6 7 6 5 5 3 2 2 2 2 3 2 3 3 2 2 2 3 3 4 3 3 4 5 4 2 2 2 2 2 3 7 7 7 5 6 7 5
7 6 7 6 4 5 6 7 5 3 3 3 2 2 1 1 1 1 2 1 1 1 2 2 3 4 3 3 5 4 3 2 1 2 3 4 6 6 5 7 8 6 3
7 6 7 7 5 4 4 5 3 3 4 3 2 1 0 1 1 1 0 0 1 1 2 2 3 3 3 3 2 2 2 2 1 1 3 5 5 4 4 5 5 3 2
6 7 8 7 6 5 4 3 3 5 4 3 2 1 1 1 1 2 1 2 2 1 0 1 1 2 3 4 3 0 0 0 0 1 2 3 4 4 4 4 4 3 3
7 7 7 7 6 5 4 3 3 5 5 3 2 1 1 1 1 2 3 6 6 10 10 7 4 2 3 5 6 6 5 4 5 4 3 3 4 4 4 5 5 4 4
Wind_Direction
220 191 184 175 159 194 271 287 306 316 336 342 342 336 327 323 329 331 334 335 335 337 328 318 323 329 307 292 287 233 239 259 200 141 290 276 250 245 243 233 221 217 207
198 194 192 188 201 229 251 270 279 296 310 301 286 270 283 295 295 309 330 336 339 337 334 325 312 312 306 332 324 182 182 231 179 155 144 302 319 279 251 231 222 224 207
200 202 201 211 222 237 241 250 261 282 302 315 332 342 347 336 339 337 335 330 334 335 330 328 319 319 319 274 276 238 187 218 238 185 159 165 223 284 305 259 240 216 216
198 201 205 216 226 235 240 249 260 281 303 326 348 352 347 322 303 305 307 318 331 337 336 333 334 332 326 297 281 229 213 183 213 256 228 198 169 168 321 330 309 243 227
200 205 209 217 227 231 232 247 269 285 306 329 326 335 323 292 300 312 327 334 334 338 339 333 334 329 311 290 288 295 235 194 196 196 199 204 180 171 173 284 314 306 248
202 212 218 221 233 236 239 247 264 282 303 322 325 321 310 316 331 337 341 338 332 334 344 342 339 325 309 295 288 279 244 212 208 210 194 178 184 187 181 216 259 277 276
194 204 210 217 228 233 236 239 252 276 298 310 309 305 303 309 317 320 329 334 334 332 332 339 335 324 312 303 301 302 290 237 214 220 220 204 207 190 181 191 219 260 286
198 207 212 215 223 233 234 233 243 264 287 294 297 306 311 308 303 311 315 320 315 310 320 334 336 331 332 336 334 328 298 272 249 244 231 213 217 201 199 189 178 223 279
207 214 219 220 223 230 230 225 230 253 274 281 294 310 317 318 316 324 332 329 325 327 344 347 349 351 351 353 4 355 325 327 299 270 250 225 224 210 217 209 195 188 217
214 219 220 221 224 226 230 223 219 236 256 271 282 301 309 313 319 337 345 340 337 345 352 355 355 358 3 8 16 360 351 6 338 309 288 257 250 242 221 213 217 211 204
213 215 217 219 222 225 220 218 222 234 253 262 278 306 314 323 339 343 335 334 338 347 352 349 353 359 3 6 14 5 9 10 353 351 351 307 268 250 244 213 209 219 212
211 211 211 209 214 222 222 221 222 227 238 243 259 287 308 334 344 332 329 337 343 346 348 349 356 358 2 4 9 2 4 3 353 347 351 338 345 337 272 224 221 225 220
209 204 204 210 218 223 223 224 224 227 233 222 238 281 302 314 314 314 324 336 341 345 349 355 356 353 353 356 1 6 4 356 341 336 342 331 340 330 318 280 248 243 239
206 202 209 218 222 224 223 224 230 224 216 207 220 252 267 274 286 303 319 325 330 337 338 341 340 340 343 344 349 2 3 356 348 340 327 314 300 286 289 286 266 250 246
211 209 211 217 219 224 227 223 226 218 203 201 222 243 259 269 286 300 308 316 324 327 326 336 339 338 334 331 345 347 357 359 355 349 337 319 314 305 289 273 257 243 239
217 214 212 211 213 217 219 217 221 214 194 205 227 241 252 263 272 283 299 313 317 320 330 332 330 333 330 339 346 352 359 357 354 344 339 337 346 347 338 322 308 279 252
212 210 207 207 209 209 206 209 213 195 191 212 229 235 240 252 262 275 294 296 300 310 316 316 320 316 314 330 340 355 10 357 346 338 340 344 346 350 341 338 343 340 316
208 209 205 205 207 201 196 192 179 181 195 213 229 232 229 244 259 269 274 277 281 288 293 300 305 305 311 327 334 348 12 0 342 335 328 330 331 334 343 348 348 338 326
199 199 194 190 185 187 180 163 170 177 193 217 230 230 221 234 249 257 263 263 267 279 280 284 298 302 307 324 329 340 358 341 328 326 328 327 327 337 356 1 346 335 324
182 178 168 162 171 180 158 157 174 182 211 223 229 227 214 221 237 248 256 252 248 266 282 287 285 283 292 311 321 331 186 312 314 324 328 331 334 337 350 350 334 327 318
170 158 153 162 175 159 150 161 176 206 222 221 222 226 222 226 237 248 249 253 263 281 289 292 292 284 282 300 309 303 197 229 282 304 313 318 335 341 344 343 311 298 304
155 152 152 161 155 152 154 166 197 220 208 188 203 231 242 247 247 247 266 262 261 285 296 304 307 297 289 286 296 298 264 218 220 269 287 301 328 339 341 339 326 325 327
161 156 153 148 142 157 162 175 208 199 168 164 196 237 267 279 282 257 275 287 267 270 291 300 303 307 311 307 305 305 307 288 215 254 294 323 345 349 346 343 344 344 339
164 154 148 149 158 163 168 185 186 162 153 164 193 206 232 332 354 4 11 20 322 300 298 303 301 306 313 315 317 315 331 349 348 341 355 6 9 7 348 345 349 347 324
162 158 159 160 163 158 161 170 164 150 148 153 151 126 107 98 63 61 63 67 45 66 17 309 299 319 321 324 322 8 62 142 77 72 41 27 13 9 2 353 346 344 348
158 155 156 155 155 151 150 153 152 147 144 138 134 122 110 99 97 92 65 53 63 53 52 49 50 21 12 11 36 55 58 58 80 81 52 32 19 7 357 351 347 347 349